Weather Service Report


095 
ASUS46 KSEW 310510
RWRWA 

WASHINGTON REGIONAL WEATHER ROUNDUP
NATIONAL WEATHER SERVICE SEATTLE WA
1000 PM PDT SAT JUL 30 2016

NOTE:"FAIR" INDICATES FEW OR NO CLOUDS BELOW 12,000 FEET WITH NO 
SIGNIFICANT WEATHER AND/OR OBSTRUCTIONS TO VISIBILITY.

WAZ505-507>509-310600-
SEATTLE, TACOMA, EVERETT, AND VICINITY
  
CITY           SKY/WX    TMP DP  RH WIND       PRES   REMARKS
EVERETT        CLEAR     62  52  69 NE5       29.94R                  
BOEING FIELD   CLEAR     65  51  60 S6        29.94R                  
RENTON         CLEAR     66  53  63 S9        29.94R                  
SEATAC AIRPORT PTCLDY    63  53  70 SW13      29.96R                  
JBLM-MCCHORD   CLOUDY    62  51  66 SW13      29.96R                  
PUYALLUP       CLOUDY    61  50  67 SW5G13    29.97R                  
BREMERTON      CLEAR     59  52  77 S7        29.96S                  
JBLM-FT LEWIS  CLEAR     60  51  72 S14       29.95R                  
TACOMA NARROWS CLEAR     60  50  69 SW10      29.96R                  
$$
 
WAZ001-503-506-510-514-515-310600-
NORTH INTERIOR
  
CITY           SKY/WX    TMP DP  RH WIND       PRES   REMARKS
BELLINGHAM     CLEAR     62  53  72 CALM      29.91R                  
FRIDAY HARBOR  CLEAR     55  50  83 CALM      29.93R                  
EASTSOUND      CLEAR     64  50  59 CALM      29.90R                  
PORT ANGELES   CLEAR     55  50  83 W6        29.95R                  
EDIZ HOOK      FAIR      56  51  82 W9        29.95R                  
PORT TOWNSEND  FAIR      61  52  72 NW5       29.93S                  
NAS WHIDBEY    PTCLDY    59  51  75 SW8       29.97R                  
ARLINGTON      CLEAR     63  48  59 NW8       29.94R                  
BURLINGTON     CLEAR     61  54  77 S3        29.93R                  
$$
 
WAZ020-022-039-040-504-511-512-310600-
SOUTHWEST INTERIOR
  
CITY           SKY/WX    TMP DP  RH WIND       PRES   REMARKS
SHELTON        CLEAR     58  51  78 SW14      29.93R                  
OLYMPIA        CLEAR     57  50  77 SW12      29.97R                  
CHEHALIS       FAIR      59  52  77 SW8       29.99S                  
KELSO          CLOUDY    61  51  70 VRB3      30.03R                  
VANCOUVER      CLEAR     63  49  60 NW9       30.00R                  
SCAPPOOSE, OR  CLEAR     60  49  66 VRB7      30.01R                  
PORTLAND, OR   PTCLDY    64  50  60 NW15      30.01R                  
$$
 
WAZ021-516-517-310600-
WASHINGTON COAST
  
CITY           SKY/WX    TMP DP  RH WIND       PRES   REMARKS
FORKS          CLOUDY    56  53  90 W3        29.99R                  
HOQUIAM        LGT RAIN  58  54  86 W13       30.01S                  
ASTORIA, OR    CLOUDY    60  54  80 W6        30.04S                  
$$
 
WAZ019-023-024-040-518-519-310600-
CASCADE MOUNTAINS AND COLUMBIA GORGE
  
CITY           SKY/WX    TMP DP  RH WIND       PRES   REMARKS
STAMPEDE PASS  CLOUDY    54  46  74 VRB7      29.99S                  
TROUTDALE, OR  CLEAR     65  49  56 NW7       29.99R                  
THE DALLES, OR CLEAR     72  45  37 NW16      29.84R                  
$$

WAZ026-027-041>044-520-521-310600-
EAST SLOPES
  
CITY           SKY/WX    TMP DP  RH WIND       PRES   REMARKS
OMAK           CLEAR     77  28  16 N15       29.69R                  
WENATCHEE      CLEAR     74  39  28 W30       29.72F                  
ELLENSBURG     CLEAR     67  49  52 NW22      29.83R                  
YAKIMA         CLEAR     75  46  35 N14       29.79R                  
$$

WAZ028-034-035-310600-
COLUMBIA BASIN
  
CITY           SKY/WX    TMP DP  RH WIND       PRES   REMARKS
EPHRATA        CLEAR     74  27  17 SW8       29.69R                  
MOSES LAKE     MOCLDY    77  32  19 W16       29.70R                  
PASCO          CLOUDY    76  44  32 NW12      29.72R                  
HERMISTON, OR  CLEAR     75  47  36 SW16G26   29.75R                  
$$

WAZ036>038-310600-
NORTHEAST WASHINGTON
  
CITY           SKY/WX    TMP DP  RH WIND       PRES   REMARKS
SPOKANE GEIGER MOCLDY    77  29  17 SW10      29.71S                  
SPOKANE FELTS  PTCLDY    79  35  20 SW5       29.70R                  
FAIRCHILD AFB  CLEAR     73  31  21 W9        29.72S                  
COEURDALENE,ID CLEAR     72  37  28 W6        29.69R                  
DEER PARK      CLEAR     72  35  25 S8        29.69R                  
$$

WAZ029>033-310600-
SOUTHEAST WASHINGTON
  
CITY           SKY/WX    TMP DP  RH WIND       PRES   REMARKS
PULLMAN        CLEAR     74  32  21 SW9       29.80R                  
LEWISTON, ID   CLEAR     81  27  14 W6        29.71R                  
WALLA WALLA    CLEAR     77  43  29 S14       29.78R                  
PENDLETON, OR  CLEAR     74  41  30 W30G39    29.77R                  
$$
  

Return to Home page


Western Regional Climate Center, wrcc@dri.edu